Location: McCloud Nature Park
(39.8272°N, 86.6824°W)
Time: 00:30:26
(UTC-06:00)

Amateur Radio Satellites - All Passes

Search period start: 11 February 2016 00:00
Search period end: 12 February 2016 00:00
Location: McCloud Nature Park, 39.8272°N, 86.6824°W

Satellite Date Start Highest point End Downlink Frequencies (MHz)
Time Altitude Azimuth
BEESAT 2 11 Feb 00:13:11 00:14:08 11° 40° (NE) 00:15:06 435.950
SWISSCUBE 11 Feb 00:17:10 00:21:19 31° 68° (ENE) 00:25:31 437.505
CUSAT 1 11 Feb 00:24:08 00:31:16 38° 89° (E) 00:38:28 437.405
Oscar 19 11 Feb 00:33:20 00:37:48 29° 96° (E) 00:42:14 437.125/150
BUGSAT 1 11 Feb 00:50:18 00:52:52 17° 294° (WNW) 00:55:25 437.445
YUBILEINY 11 Feb 00:51:31 00:53:56 11° 73° (ENE) 00:56:21 435.215
ITUPSAT 1 11 Feb 00:53:55 00:58:39 66° 74° (ENE) 01:03:24 437.325
PHONESAT 2.4 11 Feb 00:55:50 00:59:06 67° 164° (SSE) 01:02:22 2401.200-2431.200
BEESAT 11 Feb 01:01:36 01:06:21 81° 76° (ENE) 01:11:08 436.000
DANDE 11 Feb 01:06:24 01:13:39 45° 89° (E) 01:21:35 436.750
Gurwin Techsat 1B 11 Feb 01:13:28 01:17:57 27° 95° (E) 01:22:24 435.225
JAS-2 11 Feb 01:20:12 01:25:42 56° 100° (E) 01:30:48 435.910
BEESAT 3 11 Feb 01:22:20 01:26:18 71° 58° (ENE) 01:30:12 437.485
ITAMSAT 1 11 Feb 01:44:44 01:49:10 27° 96° (E) 01:53:34 435.822/435.867
BEESAT 2 11 Feb 01:48:39 01:52:40 87° 63° (ENE) 01:56:37 435.950
Cosmos 2491 11 Feb 01:52:35 02:01:22 77° 81° (E) 02:10:09 435.465 / 435.565
SWISSCUBE 11 Feb 01:55:06 01:59:06 26° 264° (W) 02:03:07 437.505
STARS 11 Feb 02:03:03 02:06:41 26° 68° (ENE) 02:10:19 437.465
CUSAT 1 11 Feb 02:05:40 02:13:22 49° 285° (WNW) 02:21:05 437.405
Oscar 19 11 Feb 02:12:35 02:17:05 32° 292° (WNW) 02:21:33 437.125/150
AIST 2 11 Feb 02:15:53 02:18:58 20° 46° (NE) 02:22:01 435.215
AO-7 11 Feb 02:16:38 02:22:22 20° 92° (E) 02:28:02 29.400- 29.500
KKS-1 11 Feb 02:22:21 02:26:48 79° 76° (ENE) 02:31:16 437.445
MOZHAYETS 4 11 Feb 02:25:07 02:29:06 31° 69° (ENE) 02:33:08
PHONESAT 2.4 11 Feb 02:33:06 02:36:23 77° 1° (N) 02:39:39 2401.200-2431.200
ITUPSAT 1 11 Feb 02:34:59 02:36:55 12° 270° (W) 02:38:53 437.325
YUBILEINY 11 Feb 02:40:15 02:48:56 69° 93° (E) 02:57:41 435.215
DANDE 11 Feb 02:49:18 02:56:39 42° 289° (WNW) 03:04:37 436.750
Gurwin Techsat 1B 11 Feb 02:53:05 02:57:56 37° 291° (WNW) 03:02:46 435.225
JAS-2 11 Feb 03:06:32 03:10:14 18° 300° (WNW) 03:13:45 435.910
CUBESAT XI-V 11 Feb 03:12:51 03:13:36 10° 61° (ENE) 03:14:20 437.345
ITAMSAT 1 11 Feb 03:23:54 03:28:39 36° 291° (WNW) 03:33:23 435.822/435.867
SO-50 11 Feb 03:27:14 03:31:19 27° 112° (ESE) 03:35:26 436.795
Cosmos 2504 11 Feb 03:28:13 03:35:24 31° 83° (E) 03:42:48 435.465 / 435.565
M-CUBED/EXP-1 PRIME 11 Feb 03:31:50 03:34:36 22° 102° (ESE) 03:37:28 437.505
STARS 11 Feb 03:39:11 03:42:57 27° 263° (W) 03:46:44 437.465
AUBIESAT-1 11 Feb 03:40:25 03:43:16 23° 102° (ESE) 03:46:16 437.475
HORYU 2 11 Feb 03:41:40 03:45:38 31° 97° (E) 03:49:36 437.375
Cosmos 2491 11 Feb 03:51:10 03:57:10 21° 281° (W) 04:03:11 435.465 / 435.565
AIST 2 11 Feb 03:53:44 03:57:38 42° 244° (WSW) 04:01:30 435.215
MOZHAYETS 4 11 Feb 04:02:33 04:06:16 24° 265° (W) 04:10:01
AO-7 11 Feb 04:07:36 04:15:57 82° 290° (WNW) 04:24:14 29.400- 29.500
PHONESAT 2.4 11 Feb 04:10:24 04:13:38 57° 198° (SSW) 04:16:51 2401.200-2431.200
YUBILEINY 11 Feb 04:39:32 04:46:28 25° 293° (WNW) 04:53:30 435.215
CUBESAT XI-V 11 Feb 04:45:33 04:50:14 86° 257° (WSW) 04:54:59 437.345
M-CUBED/EXP-1 PRIME 11 Feb 05:06:33 05:09:09 20° 295° (WNW) 05:11:51 437.505
SO-50 11 Feb 05:07:03 05:11:39 39° 309° (NW) 05:16:18 436.795
CUTE-I 11 Feb 05:11:30 05:15:39 22° 94° (E) 05:19:47 437.470
AUBIESAT-1 11 Feb 05:15:10 05:17:46 20° 295° (WNW) 05:20:28 437.475
HORYU 2 11 Feb 05:18:31 05:22:03 23° 293° (WNW) 05:25:34 437.375
Cosmos 2504 11 Feb 05:19:48 05:28:13 58° 282° (WNW) 05:37:00 435.465 / 435.565
Cubesat XI-IV 11 Feb 05:25:15 05:29:57 30° 96° (E) 05:34:38 437.490
BRITE-PL 11 Feb 05:29:31 05:32:11 15° 90° (E) 05:34:45 437.365/2234.400
PRISM 11 Feb 05:47:00 05:49:16 14° 64° (ENE) 05:51:33 437.425
PHONESAT 2.4 11 Feb 05:48:36 05:50:28 14° 213° (SSW) 05:52:19 2401.200-2431.200
STRAND 1 11 Feb 05:58:19 06:03:23 70° 74° (ENE) 06:08:31 437.568
AO-7 11 Feb 06:02:13 06:07:29 19° 309° (NW) 06:12:44 29.400- 29.500
LilacSat-2 11 Feb 06:06:58 06:10:45 75° 101° (ESE) 06:14:32 437.200
O/OREOS (USA 219) 11 Feb 06:08:53 06:10:54 13° 98° (E) 06:12:55 437.305
GOMX 1 11 Feb 06:27:16 06:31:06 29° 95° (E) 06:34:47 467.674
CUTE-I 11 Feb 06:50:46 06:55:53 45° 290° (WNW) 07:00:58 437.470
HO-68 11 Feb 06:51:33 06:56:33 20° 92° (E) 07:01:30 435.675
Cubesat XI-IV 11 Feb 07:05:11 07:10:00 34° 292° (WNW) 07:14:47 437.490
BRITE-PL 11 Feb 07:06:33 07:11:04 46° 288° (WNW) 07:15:15 437.365/2234.400
PRISM 11 Feb 07:20:10 07:24:11 47° 260° (W) 07:28:15 437.425
Cosmos 2504 11 Feb 07:21:54 07:23:49 11° 305° (NW) 07:25:45 435.465 / 435.565
CANX-2 11 Feb 07:22:44 07:26:27 28° 96° (E) 07:30:09 2200.000
DOVE 4 11 Feb 07:38:41 07:42:55 85° 284° (WNW) 07:47:03 437.250
STRAND 1 11 Feb 07:40:45 07:43:03 13° 270° (W) 07:45:23 437.568
O/OREOS (USA 219) 11 Feb 07:45:22 07:49:45 55° 294° (WNW) 07:54:12 437.305
COMPASS 1 11 Feb 07:59:51 08:03:46 35° 97° (E) 08:07:37 437.405
GOMX 1 11 Feb 08:05:40 08:09:03 22° 293° (WNW) 08:12:18 467.674
GONETS M04 11 Feb 08:05:57 08:14:20 57° 91° (E) 08:22:47
Oscar 11 11 Feb 08:11:29 08:14:11 16° 92° (E) 08:16:53 145.826/435.025
CUTE 1.7 + AOD 2 11 Feb 08:12:40 08:17:00 87° 279° (W) 08:21:17 437.475
SEEDS 11 Feb 08:16:26 08:20:42 77° 101° (E) 08:24:58 437.485
UWE-3 11 Feb 08:17:23 08:20:34 20° 94° (E) 08:23:47 435.000/436.395/437.385
CUBEBUG 2 11 Feb 08:19:21 08:23:04 30° 97° (E) 08:26:50 437.445
CINEMA 3 11 Feb 08:22:11 08:26:21 84° 282° (WNW) 08:30:32 145.822/145.860
Cosmos 2499 11 Feb 08:24:34 08:32:05 34° 84° (E) 08:39:44 435.465 / 435.565
AAUSAT CUBESAT 2 11 Feb 08:26:54 08:31:04 60° 101° (E) 08:35:13 437.432
AO-85 11 Feb 08:28:52 08:32:31 19° 107° (ESE) 08:36:15 145.980
HO-68 11 Feb 08:37:40 08:44:52 74° 289° (WNW) 08:52:01 435.675
UNISAT 6 11 Feb 08:39:01 08:42:33 25° 69° (ENE) 08:46:04 437.425
CANX-2 11 Feb 08:58:43 09:02:11 24° 291° (WNW) 09:05:38 2200.000
POPSAT HIP 1 11 Feb 09:06:00 09:07:33 12° 63° (ENE) 09:09:06 437.405
ZACube-1 11 Feb 09:07:18 09:11:28 53° 100° (E) 09:15:40 437.345
NANOSAT C BR1 11 Feb 09:09:24 09:11:14 13° 64° (ENE) 09:13:04 145.865
DUCHIFAT 1 11 Feb 09:10:16 09:11:59 12° 64° (ENE) 09:13:41 145.980
HUMSAT D 11 Feb 09:13:59 09:16:49 18° 93° (E) 09:19:40 437.325/437.525
FUNcube-1 11 Feb 09:15:32 09:19:44 63° 101° (E) 09:24:00 145.935
QB50P1 11 Feb 09:17:18 09:19:55 16° 66° (ENE) 09:22:32 145.935-145.965
ANTELSAT 11 Feb 09:23:07 09:27:26 80° 76° (ENE) 09:31:43 437.575/2403.000
PCSat 11 Feb 09:28:13 09:33:04 35° 110° (ESE) 09:37:56 145.827
DELFI C3 11 Feb 09:28:52 09:32:54 66° 101° (E) 09:36:56 145.870
TIGRISAT 11 Feb 09:29:27 09:33:47 89° 58° (ENE) 09:38:03 435.000
COMPASS 1 11 Feb 09:36:05 09:39:05 19° 293° (WNW) 09:42:04 437.405
AIST 1 11 Feb 09:36:22 09:40:22 35° 91° (E) 09:44:24
RS-15 11 Feb 09:40:18 09:49:34 32° 104° (ESE) 09:59:09 29.354- 29.394
Oscar 11 11 Feb 09:46:23 09:50:31 42° 287° (WNW) 09:54:36 145.826/435.025
UWE-3 11 Feb 09:53:20 09:57:05 31° 289° (WNW) 10:00:52 435.000/436.395/437.385
CUBEBUG 2 11 Feb 09:56:20 09:59:33 22° 291° (WNW) 10:02:49 437.445
DX 1 11 Feb 10:02:34 10:03:59 11° 91° (E) 10:05:23 434.975-435.025
BUGSAT 1 11 Feb 10:03:16 10:06:42 25° 69° (ENE) 10:10:05 437.445
GONETS M04 11 Feb 10:04:10 10:11:34 31° 290° (WNW) 10:19:04
AAUSAT CUBESAT 2 11 Feb 10:04:27 10:06:03 12° 296° (WNW) 10:07:38 437.432
AO-85 11 Feb 10:07:13 10:12:32 63° 305° (NW) 10:18:01 145.980
POLYITAN 1 11 Feb 10:08:43 10:12:54 61° 74° (ENE) 10:17:04 437.675
QB50P2 11 Feb 10:09:16 10:13:28 64° 74° (ENE) 10:17:39 145.880/145.840
ESTCUBE 1 11 Feb 10:10:21 10:13:14 16° 92° (E) 10:16:06 437.505/2401.250
UNISAT 6 11 Feb 10:15:34 10:19:12 26° 264° (W) 10:22:48 437.425
Cosmos 2499 11 Feb 10:16:19 10:24:47 54° 283° (WNW) 10:33:29 435.465 / 435.565
HO-68 11 Feb 10:27:52 10:31:21 14° 308° (NW) 10:34:50 435.675
POPSAT HIP 1 11 Feb 10:38:38 10:42:49 61° 259° (WSW) 10:47:01 437.405
NANOSAT C BR1 11 Feb 10:42:21 10:46:30 56° 259° (W) 10:50:39 145.865
DUCHIFAT 1 11 Feb 10:43:02 10:47:12 58° 260° (W) 10:51:21 145.980
ZACube-1 11 Feb 10:45:16 10:47:20 13° 295° (WNW) 10:49:24 437.345
HUMSAT D 11 Feb 10:48:44 10:52:34 36° 288° (WNW) 10:56:26 437.325/437.525
QB50P1 11 Feb 10:51:20 10:55:21 42° 261° (W) 10:59:24 145.935-145.965
FUNcube-1 11 Feb 10:54:05 10:55:29 11° 296° (WNW) 10:56:53 145.935
50 SAT 11 Feb 10:57:09 11:00:55 60° 100° (E) 11:04:41 437.505
VELOX 1 11 Feb 11:00:29 11:04:47 49° 100° (E) 11:09:02 145.980
CUSAT 1 11 Feb 11:04:24 11:07:55 17° 61° (ENE) 11:10:56 437.405
DELFI C3 11 Feb 11:06:53 11:07:15 10° 297° (WNW) 11:07:38 145.870
PCSat 11 Feb 11:11:33 11:16:26 33° 307° (NW) 11:21:21 145.827
AIST 1 11 Feb 11:14:58 11:18:05 19° 288° (WNW) 11:21:12
AISAT 11 Feb 11:17:23 11:21:49 82° 102° (ESE) 11:26:12 437.250
UKube-1 11 Feb 11:21:14 11:25:34 78° 103° (ESE) 11:29:53 .
SPROUT 11 Feb 11:28:05 11:31:49 29° 96° (E) 11:35:32 437.525
JAS-2 11 Feb 11:30:28 11:36:41 29° 65° (ENE) 11:42:27 435.910
CUBEBUG 1 11 Feb 11:32:22 11:36:45 84° 284° (WNW) 11:41:04 437.445
TISAT 1 11 Feb 11:33:01 11:34:10 11° 91° (E) 11:35:19 437.305
DX 1 11 Feb 11:36:15 11:40:33 60° 286° (WNW) 11:44:49 434.975-435.025
BUGSAT 1 11 Feb 11:38:27 11:41:59 26° 264° (W) 11:45:30 437.445
ESTCUBE 1 11 Feb 11:45:56 11:50:16 45° 288° (WNW) 11:54:34 437.505/2401.250
POLYITAN 1 11 Feb 11:48:16 11:49:05 10° 270° (W) 11:49:55 437.675
Oscar 19 11 Feb 11:49:16 11:54:05 41° 70° (ENE) 11:58:55 437.125/150
RS-15 11 Feb 11:49:50 12:00:56 70° 306° (NW) 12:12:44 29.354- 29.394
DANDE 11 Feb 11:50:06 11:55:57 29° 66° (ENE) 12:00:36 436.750
AO-85 11 Feb 11:51:33 11:54:10 13° 324° (NW) 11:56:49 145.980
SO-50 11 Feb 11:59:15 12:03:03 22° 45° (NE) 12:06:45 436.795
Gurwin Techsat 1B 11 Feb 12:33:40 12:38:35 40° 69° (ENE) 12:43:31 435.225
VELOX 1 11 Feb 12:38:16 12:40:51 15° 296° (WNW) 12:43:25 145.980
CUSAT 1 11 Feb 12:45:32 12:50:55 49° 268° (W) 12:54:58 437.405
YUBILEINY 11 Feb 12:51:51 12:59:38 33° 71° (ENE) 13:07:18 435.215
ITUPSAT 1 11 Feb 12:56:15 12:59:32 18° 93° (E) 13:02:46 437.325
Cosmos 2491 11 Feb 13:00:30 13:05:29 17° 77° (ENE) 13:10:28 435.465 / 435.565
ITAMSAT 1 11 Feb 13:01:52 13:06:37 39° 69° (ENE) 13:11:26 435.822/435.867
BEESAT 11 Feb 13:03:15 13:06:56 22° 94° (E) 13:10:35 436.000
SPROUT 11 Feb 13:04:18 13:07:39 23° 292° (WNW) 13:10:58 437.525
TISAT 1 11 Feb 13:06:05 13:10:12 57° 286° (WNW) 13:14:16 437.305
JAS-2 11 Feb 13:13:49 13:21:21 57° 260° (W) 13:28:15 435.910
AO-7 11 Feb 13:14:46 13:21:35 29° 57° (ENE) 13:28:25 29.400- 29.500
Oscar 19 11 Feb 13:29:26 13:33:31 23° 266° (W) 13:37:38 437.125/150
DANDE 11 Feb 13:32:55 13:39:06 39° 272° (W) 13:43:51 436.750
ISS 11 Feb 13:34:09 13:35:40 13° 129° (SE) 13:37:10 145.825
SO-50 11 Feb 13:39:12 13:43:50 49° 243° (WSW) 13:48:17 436.795
SWISSCUBE 11 Feb 13:54:59 13:59:49 82° 103° (ESE) 14:04:38 437.505
RS-15 11 Feb 14:06:55 14:16:05 26° 335° (NNW) 14:25:39 29.354- 29.394
Gurwin Techsat 1B 11 Feb 14:14:21 14:18:38 25° 266° (W) 14:22:57 435.225
KKS-1 11 Feb 14:15:24 14:18:05 16° 93° (E) 14:20:45 437.445
M-CUBED/EXP-1 PRIME 11 Feb 14:18:38 14:21:40 26° 67° (ENE) 14:24:34 437.505
AUBIESAT-1 11 Feb 14:26:47 14:29:50 27° 67° (ENE) 14:32:46 437.475
ITUPSAT 1 11 Feb 14:32:58 14:37:35 46° 289° (WNW) 14:42:10 437.325
HORYU 2 11 Feb 14:39:14 14:42:56 27° 68° (ENE) 14:46:39 437.375
BEESAT 11 Feb 14:40:24 14:44:49 38° 290° (WNW) 14:49:14 436.000
ITAMSAT 1 11 Feb 14:41:59 14:46:11 25° 265° (W) 14:50:24 435.822/435.867
YUBILEINY 11 Feb 14:48:14 14:56:45 54° 270° (W) 15:05:11 435.215
Cosmos 2491 11 Feb 14:52:17 15:01:01 90° 187° (S) 15:09:47 435.465 / 435.565
AO-7 11 Feb 15:05:26 15:13:44 67° 256° (WSW) 15:22:05 29.400- 29.500
ISS 11 Feb 15:08:30 15:11:43 64° 324° (NW) 15:14:57 145.825
Cosmos 2504 11 Feb 15:13:53 15:22:17 55° 77° (ENE) 15:30:04 435.465 / 435.565
BEESAT 3 11 Feb 15:14:32 15:16:40 14° 110° (ESE) 15:18:50 437.485
STARS 11 Feb 15:28:35 15:32:53 54° 100° (E) 15:37:09 437.465
SWISSCUBE 11 Feb 15:35:28 15:36:55 11° 300° (WNW) 15:38:23 437.505
BEESAT 2 11 Feb 15:41:23 15:44:10 18° 111° (ESE) 15:46:57 435.950
KKS-1 11 Feb 15:50:39 15:54:52 45° 288° (WNW) 15:59:05 437.445
M-CUBED/EXP-1 PRIME 11 Feb 15:53:52 15:56:19 17° 259° (W) 15:58:40 437.505
MOZHAYETS 4 11 Feb 15:57:07 16:01:47 82° 102° (ESE) 16:06:27
AUBIESAT-1 11 Feb 16:02:03 16:04:25 17° 259° (W) 16:06:43 437.475
HORYU 2 11 Feb 16:15:44 16:19:26 26° 264° (W) 16:23:10 437.375
O/OREOS (USA 219) 11 Feb 16:17:13 16:20:59 24° 59° (ENE) 16:24:44 437.305
RS-15 11 Feb 16:26:02 16:34:27 21° 11° (N) 16:43:02 29.354- 29.394
CUTE-I 11 Feb 16:32:26 16:37:11 34° 68° (ENE) 16:41:58 437.470
BRITE-PL 11 Feb 16:38:07 16:42:24 23° 66° (ENE) 16:46:35 437.365/2234.400
CUBESAT XI-V 11 Feb 16:43:30 16:47:23 25° 95° (E) 16:51:13 437.345
Cubesat XI-IV 11 Feb 16:46:24 16:51:27 46° 70° (ENE) 16:56:33 437.490
ISS 11 Feb 16:46:41 16:48:40 15° 343° (NNW) 16:50:40 145.825
LilacSat-2 11 Feb 16:48:27 16:51:51 31° 72° (ENE) 16:55:15 437.200
BEESAT 3 11 Feb 16:50:11 16:54:02 47° 305° (NW) 16:57:54 437.485
Cosmos 2491 11 Feb 16:53:30 16:59:06 18° 297° (WNW) 17:04:44 435.465 / 435.565
AO-85 11 Feb 17:00:58 17:04:16 17° 39° (NE) 17:07:26 145.980
STARS 11 Feb 17:06:31 17:08:47 14° 296° (WNW) 17:11:03 437.465
AO-7 11 Feb 17:06:34 17:07:55 10° 273° (W) 17:09:18 29.400- 29.500
Cosmos 2504 11 Feb 17:08:02 17:15:06 30° 277° (W) 17:21:48 435.465 / 435.565
DOVE 4 11 Feb 17:10:04 17:10:28 10° 62° (ENE) 17:10:52 437.250
BEESAT 2 11 Feb 17:18:01 17:21:46 38° 307° (NW) 17:25:33 435.950
HO-68 11 Feb 17:21:30 17:25:18 15° 53° (NE) 17:29:06 435.675
GOMX 1 11 Feb 17:33:31 17:38:23 36° 71° (ENE) 17:43:03 467.674
MOZHAYETS 4 11 Feb 17:37:18 17:38:16 11° 299° (WNW) 17:39:14
AIST 2 11 Feb 17:50:12 17:54:10 45° 117° (ESE) 17:58:11 435.215
O/OREOS (USA 219) 11 Feb 17:56:18 18:00:25 33° 256° (WSW) 18:04:31 437.305
STRAND 1 11 Feb 18:10:11 18:14:25 25° 95° (E) 18:18:37 437.568
CUTE-I 11 Feb 18:12:38 18:17:13 29° 264° (W) 18:21:50 437.470
BRITE-PL 11 Feb 18:14:57 18:20:29 52° 261° (W) 18:25:54 437.365/2234.400
CANX-2 11 Feb 18:15:31 18:18:27 19° 67° (ENE) 18:21:25 2200.000
PCSat 11 Feb 18:16:40 18:21:12 26° 50° (NE) 18:25:42 145.827
GONETS M04 11 Feb 18:17:31 18:24:42 27° 68° (ENE) 18:31:51
CUBESAT XI-V 11 Feb 18:20:37 18:24:46 31° 290° (WNW) 18:28:52 437.345
LilacSat-2 11 Feb 18:23:49 18:26:15 16° 267° (W) 18:28:42 437.200
ISS 11 Feb 18:25:28 18:26:13 11° 4° (N) 18:26:57 145.825
Cubesat XI-IV 11 Feb 18:27:42 18:31:43 22° 266° (W) 18:35:47 437.490
RS-15 11 Feb 18:39:52 18:51:20 45° 43° (NE) 19:02:55 29.354- 29.394
AO-85 11 Feb 18:40:25 18:45:34 84° 238° (WSW) 18:50:14 145.980
DOVE 4 11 Feb 18:42:24 18:47:30 87° 74° (ENE) 18:52:20 437.250
COMPASS 1 11 Feb 18:50:29 18:53:40 22° 68° (ENE) 18:56:55 437.405
PRISM 11 Feb 19:03:05 19:06:28 23° 95° (E) 19:09:48 437.425
CUTE 1.7 + AOD 2 11 Feb 19:04:23 19:08:30 58° 75° (ENE) 19:12:41 437.475
HO-68 11 Feb 19:04:42 19:11:51 78° 72° (ENE) 19:19:04 435.675
Oscar 11 11 Feb 19:06:52 19:08:33 12° 63° (ENE) 19:10:13 145.826/435.025
SEEDS 11 Feb 19:07:20 19:11:20 46° 73° (ENE) 19:15:22 437.485
GOMX 1 11 Feb 19:11:52 19:16:26 28° 265° (W) 19:20:52 467.674
UWE-3 11 Feb 19:14:39 19:17:12 16° 66° (ENE) 19:19:44 435.000/436.395/437.385
AAUSAT CUBESAT 2 11 Feb 19:16:33 19:20:18 35° 71° (ENE) 19:24:05 437.432
CUBEBUG 2 11 Feb 19:17:12 19:20:38 23° 69° (ENE) 19:23:59 437.445
CINEMA 3 11 Feb 19:22:36 19:27:13 80° 76° (ENE) 19:31:39 145.822/145.860
AIST 2 11 Feb 19:29:54 19:32:54 19° 314° (NW) 19:35:56 435.215
STRAND 1 11 Feb 19:48:54 19:53:39 38° 291° (WNW) 19:58:22 437.568
CANX-2 11 Feb 19:50:12 19:54:03 35° 263° (W) 19:57:57 2200.000
PCSat 11 Feb 19:59:37 20:04:48 47° 248° (WSW) 20:09:57 145.827
ISS 11 Feb 20:01:04 20:03:38 21° 24° (NNE) 20:06:11 145.825
ZACube-1 11 Feb 20:02:35 20:06:26 36° 72° (ENE) 20:10:16 437.345
HUMSAT D 11 Feb 20:06:27 20:07:49 11° 64° (ENE) 20:09:10 437.325/437.525
Cosmos 2499 11 Feb 20:09:08 20:17:21 57° 77° (ENE) 20:24:53 435.465 / 435.565
FUNcube-1 11 Feb 20:10:26 20:14:24 43° 73° (ENE) 20:18:19 145.935
GONETS M04 11 Feb 20:13:28 20:22:09 66° 268° (W) 20:30:51
DELFI C3 11 Feb 20:14:31 20:18:06 33° 71° (ENE) 20:21:43 145.870
COMPASS 1 11 Feb 20:25:30 20:29:06 29° 264° (W) 20:32:45 437.405
PRISM 11 Feb 20:38:13 20:41:45 27° 291° (WNW) 20:45:16 437.425
Oscar 11 11 Feb 20:39:54 20:44:08 61° 259° (W) 20:48:25 145.826/435.025
CUTE 1.7 + AOD 2 11 Feb 20:43:35 20:44:43 11° 270° (W) 20:45:52 437.475
SEEDS 11 Feb 20:45:11 20:47:18 14° 269° (W) 20:49:26 437.485
UWE-3 11 Feb 20:49:19 20:53:21 42° 261° (W) 20:57:21 435.000/436.395/437.385
RS-15 11 Feb 20:52:29 21:04:25 63° 247° (WSW) 21:16:27 29.354- 29.394
AAUSAT CUBESAT 2 11 Feb 20:53:06 20:55:54 18° 267° (W) 20:58:45 437.432
CUBEBUG 2 11 Feb 20:53:26 20:57:09 28° 264° (W) 21:00:47 437.445
HO-68 11 Feb 20:55:35 21:00:15 18° 269° (W) 21:04:57 435.675
DX 1 11 Feb 20:58:51 20:59:25 10° 61° (ENE) 21:00:00 434.975-435.025
ESTCUBE 1 11 Feb 21:09:51 21:12:24 15° 64° (ENE) 21:14:57 437.505/2401.250
ANTELSAT 11 Feb 21:16:24 21:19:17 17° 93° (E) 21:22:13 437.575/2403.000
AIST 1 11 Feb 21:21:12 21:25:34 80° 264° (W) 21:29:51
TIGRISAT 11 Feb 21:22:21 21:25:28 19° 94° (E) 21:28:37 435.000
50 SAT 11 Feb 21:37:03 21:40:07 25° 70° (ENE) 21:43:13 437.505
ISS 11 Feb 21:37:06 21:40:18 58° 221° (SW) 21:43:28 145.825
HUMSAT D 11 Feb 21:38:56 21:42:57 57° 260° (W) 21:46:59 437.325/437.525
ZACube-1 11 Feb 21:40:07 21:42:51 17° 267° (W) 21:45:36 437.345
FUNcube-1 11 Feb 21:48:33 21:50:51 14° 268° (W) 21:53:09 145.935
DELFI C3 11 Feb 21:50:29 21:53:07 17° 267° (W) 21:55:45 145.870
VELOX 1 11 Feb 21:56:58 22:01:08 40° 71° (ENE) 22:05:20 145.980
POLYITAN 1 11 Feb 21:57:40 21:58:06 10° 90° (E) 21:58:31 437.675
QB50P2 11 Feb 21:57:40 21:58:40 11° 90° (E) 21:59:39 145.880/145.840
Cosmos 2499 11 Feb 22:03:12 22:09:49 28° 278° (W) 22:16:03 435.465 / 435.565
UNISAT 6 11 Feb 22:06:51 22:11:11 63° 101° (E) 22:15:35 437.425
AISAT 11 Feb 22:13:45 22:18:11 65° 74° (ENE) 22:22:37 437.250
UKube-1 11 Feb 22:14:49 22:19:04 59° 74° (ENE) 22:23:21 .
GONETS M04 11 Feb 22:15:51 22:17:07 10° 287° (WNW) 22:18:23
SPROUT 11 Feb 22:21:31 22:24:47 22° 68° (ENE) 22:28:03 437.525
POPSAT HIP 1 11 Feb 22:24:52 22:28:08 22° 95° (E) 22:31:23 437.405
PHONESAT 2.4 11 Feb 22:26:23 22:27:36 12° 146° (SE) 22:28:50 2401.200-2431.200
CUBEBUG 1 11 Feb 22:27:09 22:31:35 72° 74° (ENE) 22:36:00 437.445
NANOSAT C BR1 11 Feb 22:28:06 22:31:28 23° 95° (E) 22:34:49 145.865
DUCHIFAT 1 11 Feb 22:28:36 22:31:54 22° 95° (E) 22:35:10 145.980
DX 1 11 Feb 22:30:35 22:34:58 78° 257° (WSW) 22:39:22 434.975-435.025
QB50P1 11 Feb 22:36:57 22:40:39 30° 97° (E) 22:44:21 145.935-145.965
ESTCUBE 1 11 Feb 22:44:19 22:48:44 54° 260° (W) 22:53:13 437.505/2401.250
ANTELSAT 11 Feb 22:52:04 22:56:09 40° 288° (WNW) 23:00:19 437.575/2403.000
TIGRISAT 11 Feb 22:58:16 23:02:15 36° 289° (WNW) 23:06:19 435.000
RS-15 11 Feb 23:10:21 23:14:20 12° 266° (W) 23:18:21 29.354- 29.394
50 SAT 11 Feb 23:11:24 23:14:07 19° 265° (W) 23:16:51 437.505
BUGSAT 1 11 Feb 23:20:27 23:24:18 44° 99° (E) 23:28:08 437.445
POLYITAN 1 11 Feb 23:30:08 23:34:18 62° 285° (WNW) 23:38:27 437.675
QB50P2 11 Feb 23:30:41 23:34:51 59° 285° (WNW) 23:38:59 145.880/145.840
VELOX 1 11 Feb 23:34:43 23:37:46 18° 267° (W) 23:40:50 145.980
UNISAT 6 11 Feb 23:45:40 23:47:24 12° 296° (WNW) 23:49:09 437.425
AISAT 11 Feb 23:53:51 23:55:05 11° 270° (W) 23:56:18 437.250
UKube-1 11 Feb 23:53:57 23:55:29 12° 269° (W) 23:57:00 .
